Probability
17 15 10 5 3 3 4 6 4 1 0 1 6 9 9 5 2 2 2 1 0 0 0 0 0 0 0 0 0 0 0 0 0 0 0 0 0 0
16 14 10 7 6 5 5 7 7 3 0 2 7 12 11 7 4 2 1 0 0 0 0 0 0 0 0 0 0 0 0 0 0 0 0 0 0 0
14 12 9 9 9 9 9 10 9 5 2 4 10 14 14 11 7 4 2 0 0 0 0 0 0 0 0 0 0 0 0 0 0 0 0 0 0 0
11 9 7 7 8 9 10 9 8 5 3 5 9 11 10 8 6 3 1 0 0 0 0 0 0 0 0 0 0 0 0 0 0 0 0 0 0 0
7 6 5 4 4 5 6 5 3 2 3 4 5 5 3 2 2 1 0 0 0 0 0 0 0 0 0 0 0 0 0 0 0 0 0 0 0 0
5 4 3 3 3 3 2 1 0 0 1 2 3 2 0 0 0 0 0 0 0 0 0 0 0 0 0 0 0 0 0 0 0 0 0 0 0 0
4 3 3 3 3 2 1 0 0 0 0 1 1 0 0 0 0 0 0 0 0 0 0 0 0 0 0 0 0 0 0 0 0 0 0 0 0 0
3 3 3 3 1 1 0 0 0 0 0 0 0 1 1 1 0 0 0 0 0 0 0 0 0 0 0 0 0 0 0 0 0 0 0 0 0 0
3 3 3 2 1 0 0 0 0 0 0 0 0 1 2 1 0 0 0 0 0 0 0 0 0 0 0 0 0 0 0 0 0 0 0 0 0 0
3 3 3 3 1 0 0 0 0 0 0 0 0 1 1 1 0 0 0 0 0 0 0 0 0 0 0 0 0 0 0 0 0 0 0 0 0 0
2 2 2 2 1 0 0 0 0 0 0 0 0 0 0 0 0 0 0 0 0 0 0 0 0 0 0 0 0 0 0 0 0 0 0 0 0 0
1 1 1 1 1 0 0 0 0 0 0 0 0 0 0 0 0 0 0 0 0 0 0 0 0 0 0 0 0 0 0 0 0 0 0 0 0 0
0 0 0 0 0 0 0 0 0 0 0 0 0 0 0 0 0 0 0 0 0 0 0 0 0 0 0 0 0 0 0 0 0 0 0 0 0 0
0 0 0 0 0 0 0 0 0 0 0 0 0 0 0 0 0 0 0 0 0 0 0 0 0 0 0 0 0 0 0 0 0 0 0 0 0 0
0 0 0 0 0 0 0 0 0 0 0 0 0 0 0 0 0 0 0 0 0 0 0 0 0 0 0 0 0 0 0 0 0 0 0 0 0 0
0 0 0 0 0 0 0 0 0 0 0 0 0 0 0 0 0 0 0 0 0 0 0 0 0 0 0 0 0 0 0 0 0 0 0 0 0 0
0 0 0 0 0 0 0 0 0 0 0 0 0 0 0 0 0 0 0 0 0 0 0 0 0 0 0 0 0 0 0 0 0 0 0 0 0 0
0 0 0 0 0 0 0 0 0 0 0 0 0 0 0 0 0 0 0 0 0 0 0 0 0 0 0 0 0 0 0 0 0 0 0 0 0 0
0 0 0 0 0 0 0 0 0 0 0 0 0 0 0 0 0 0 0 0 0 0 0 0 0 0 0 0 0 0 0 0 0 0 0 0 0 0
0 0 0 0 0 0 0 0 0 0 0 0 0 0 0 0 0 0 0 0 0 0 0 0 0 0 0 0 0 0 0 0 0 0 0 0 0 0
0 0 0 0 0 0 0 0 0 0 0 0 0 0 0 0 0 0 0 0 0 0 0 0 0 0 0 0 0 0 0 0 0 0 0 0 0 0
0 0 0 0 0 0 0 0 0 0 0 0 0 0 0 0 0 0 0 0 0 0 0 0 0 0 0 0 0 0 0 0 0 0 0 0 0 0
0 0 0 0 0 0 0 0 0 0 0 0 0 0 0 0 0 0 0 0 0 0 0 0 0 0 0 0 0 0 0 0 0 0 0 0 0 0
Wind_Speed
3 3 2 2 2 2 1 0 1 1 1 0 1 2 3 4 5 4 4 6 6 6 5 4 4 3 3 3 2 3 3 3 3 3 4 4 4 5
2 2 2 1 1 1 1 1 1 0 1 1 2 3 3 4 7 5 5 8 7 6 6 5 5 5 4 4 5 5 5 5 5 5 5 5 5 6
2 2 2 1 1 2 1 1 1 1 1 1 2 3 4 4 3 3 4 4 4 7 7 7 7 7 7 6 6 6 6 6 6 6 6 6 6 7
1 1 1 1 1 2 2 3 2 2 2 2 2 3 3 3 2 2 3 4 4 7 8 8 8 8 7 7 6 6 6 6 6 6 6 7 7 7
3 3 3 3 3 3 3 3 3 3 3 3 3 3 3 3 3 3 4 3 3 6 7 6 6 6 6 6 6 5 5 4 4 4 5 6 7 8
7 7 7 6 5 5 4 4 4 5 5 5 4 4 4 4 4 3 3 3 3 2 2 3 3 4 5 5 5 4 4 3 2 2 3 4 6 8
10 10 10 13 14 10 7 6 6 5 5 5 5 4 4 4 4 3 3 3 3 4 3 1 1 1 2 3 3 4 3 2 1 1 3 4 5 6
10 9 10 11 16 18 18 17 12 8 6 5 5 5 5 5 4 4 3 3 2 3 3 3 2 2 1 1 4 5 4 3 2 3 4 5 6 7
9 7 7 9 10 9 14 16 16 17 13 8 8 6 5 4 4 4 3 3 2 2 2 2 2 3 3 2 4 5 5 5 5 6 6 7 8 8
9 8 8 7 8 9 10 11 10 10 9 8 7 6 5 3 3 3 2 3 2 3 3 2 3 3 4 1 5 5 6 7 8 9 9 9 9 10
9 9 9 8 11 11 9 9 8 7 9 10 9 7 7 7 6 4 5 4 4 3 5 4 3 4 4 2 1 4 7 9 10 11 11 12 12 10
9 9 12 11 10 9 7 7 7 4 4 4 4 3 3 4 6 5 4 4 4 3 4 4 4 4 4 3 4 3 5 7 9 11 11 12 11 6
8 7 7 10 10 10 7 6 5 3 2 3 3 3 3 3 4 4 3 2 2 2 3 3 3 3 3 5 5 4 4 4 4 5 7 9 10 7
8 6 7 10 10 9 7 6 5 4 3 3 4 4 4 3 3 2 2 1 1 2 2 2 2 3 4 5 5 5 5 5 4 4 4 6 7 9
8 11 9 9 7 6 7 6 5 3 4 4 4 3 3 2 2 2 2 2 3 2 1 1 2 3 3 5 5 5 6 5 4 4 4 4 5 5
8 9 8 6 4 5 4 4 3 4 4 4 3 3 3 3 3 3 3 3 3 2 3 3 3 4 4 5 5 5 5 4 4 4 4 5 5 5
6 4 4 4 3 3 3 3 3 4 4 3 3 3 3 3 3 3 3 3 3 4 4 3 4 4 5 5 5 5 5 5 5 5 5 6 5 4
5 4 4 4 4 4 3 3 4 3 3 3 3 3 3 3 3 3 3 3 4 4 4 4 4 4 5 4 4 5 5 5 5 6 6 5 5 4
3 4 4 4 4 3 3 3 4 3 2 3 3 3 3 3 3 3 3 3 4 4 4 4 4 4 7 8 7 7 7 6 5 5 5 6 6 5
2 4 4 4 3 3 4 3 3 2 2 2 3 3 3 3 3 3 3 4 4 5 4 4 4 4 5 7 7 8 8 6 5 5 6 5 5 6
4 4 4 4 4 4 3 2 2 2 2 2 2 3 3 3 3 4 4 5 5 4 5 5 4 6 5 4 6 6 5 7 8 6 6 6 6 5
3 4 4 4 3 3 2 1 1 2 2 2 2 2 3 3 3 4 4 4 4 5 5 5 5 5 5 5 7 7 7 7 8 10 10 8 5 6
3 3 3 3 3 2 2 1 2 2 2 3 3 3 3 3 3 3 4 5 5 6 6 5 5 5 6 6 6 7 9 8 6 6 6 9 12 14
Wind_Direction
217 212 226 259 273 292 308 316 193 215 242 180 75 71 91 95 118 115 105 120 125 125 125 119 108 96 88 79 68 64 57 48 37 26 13 360 347 337
202 204 210 263 291 279 302 334 345 142 160 107 86 73 69 104 110 107 107 113 111 112 107 103 98 92 87 82 79 71 62 54 46 39 28 16 5 354
211 184 181 236 344 341 13 11 3 44 113 101 82 66 66 72 97 121 128 111 103 106 107 104 100 95 89 84 80 75 68 58 47 37 28 20 9 358
164 113 132 162 98 359 15 24 37 50 89 105 92 80 67 65 67 82 98 108 111 110 109 109 108 106 102 98 92 84 75 62 48 35 25 15 4 354
87 74 62 61 56 45 38 32 33 44 70 94 84 67 62 45 37 45 60 57 99 119 119 121 123 124 120 110 101 92 85 71 54 37 22 9 356 347
72 68 62 61 58 54 52 39 49 56 65 80 78 64 51 30 34 26 32 18 25 54 75 113 138 136 134 126 115 104 97 85 66 33 3 350 341 336
77 73 72 74 69 66 65 49 49 57 68 77 78 68 48 33 21 7 22 9 16 23 15 18 137 152 154 160 151 144 137 124 73 327 319 317 316 315
92 85 80 76 78 74 71 66 61 63 66 70 70 68 53 33 12 17 18 6 3 4 356 339 4 20 6 127 159 172 188 210 246 272 282 290 296 299
93 91 86 79 77 82 76 69 62 61 67 79 76 66 55 26 7 14 12 354 316 309 335 334 359 7 356 65 170 198 217 235 249 259 267 275 282 287
86 89 90 81 76 84 85 77 67 56 61 72 79 73 67 34 8 2 338 330 337 2 11 355 358 351 338 308 215 221 243 251 259 265 268 270 273 280
83 77 81 82 76 84 90 92 87 78 74 85 93 94 77 52 32 23 13 10 10 20 19 3 349 337 321 320 330 240 265 269 271 270 271 272 276 284
88 79 72 76 74 78 87 91 88 83 87 89 93 84 77 58 48 41 27 13 2 4 16 0 348 345 325 333 344 303 285 288 287 282 277 277 280 280
97 89 78 76 73 69 74 81 86 84 92 88 88 80 64 56 50 44 37 22 10 349 347 354 337 337 323 317 317 313 311 308 302 295 292 289 285 274
103 100 95 85 76 69 65 58 54 58 71 72 68 58 53 44 28 19 16 346 270 258 285 323 314 321 319 314 313 316 315 309 309 314 319 316 302 291
99 104 103 96 86 78 74 63 51 47 54 59 56 50 46 28 8 5 356 338 319 321 1 310 299 306 302 303 308 312 313 313 326 333 331 328 318 305
104 105 101 87 76 73 76 69 60 51 48 47 41 34 24 19 20 15 1 347 346 344 346 333 313 302 297 297 300 304 314 319 327 325 325 313 301 300
117 121 118 111 106 100 87 72 67 59 47 36 34 29 23 21 15 8 359 348 352 347 342 332 325 317 307 310 319 324 325 321 319 320 314 307 303 307
115 120 116 111 105 98 92 83 71 55 37 34 35 29 20 13 6 358 359 358 353 345 335 327 331 332 330 325 325 327 323 319 314 309 306 309 307 308
114 111 104 97 93 90 82 78 75 65 38 28 32 27 14 7 8 359 358 359 345 330 324 328 342 345 337 329 324 320 311 305 305 306 306 304 301 300
124 108 106 102 92 78 71 67 66 59 41 29 31 23 12 3 1 350 349 350 331 322 328 337 345 342 323 311 306 305 302 304 306 305 304 302 297 299
119 109 103 100 92 85 79 68 66 61 41 29 33 13 359 354 353 342 340 341 329 328 336 332 322 311 294 296 306 309 305 301 296 293 297 302 304 305
111 111 104 100 100 98 91 74 69 64 40 27 29 4 354 349 341 335 339 336 330 332 331 321 318 317 315 316 318 316 314 312 302 293 288 281 286 295
112 113 119 123 123 127 103 67 54 62 47 27 15 354 346 339 330 330 332 331 328 328 327 326 326 322 319 316 318 317 318 321 320 317 304 292 279 273